This is the latest recevied weather packets stored in our database for station/object KA1BMF-13. If no packets are shown the sender has not sent any weather packets the latest 10 day(s).
| Time | Temp. | Humidity | Pressure | Rain* | Wind** | Luminosity | Snow |
|---|---|---|---|---|---|---|---|
| 1788058520 | 15.56° C | 87% | 1021.8 hPa | 0 mm | - | 0 W/m² | - |
| 1788057917 | 15.56° C | 86% | 1021.8 hPa | 0 mm | - | 0 W/m² | - |
| 1788057317 | 15.56° C | 86% | 1021.8 hPa | 0 mm | - | 0 W/m² | - |
| 1788056717 | 15.56° C | 86% | 1021.9 hPa | 0 mm | - | 0 W/m² | - |
| 1788056117 | 15.56° C | 86% | 1021.9 hPa | 0 mm | - | 0 W/m² | - |
| 1788055521 | 16.11° C | 85% | 1022 hPa | 0 mm | - | 0 W/m² | - |
| 1788054918 | 16.11° C | 84% | 1021.9 hPa | 0 mm | - | 0 W/m² | - |
| 1788054318 | 16.11° C | 84% | 1021.8 hPa | 0 mm | - | 0 W/m² | - |
| 1788053718 | 16.11° C | 84% | 1021.8 hPa | 0 mm | - | 0 W/m² | - |
| 1788053118 | 16.67° C | 82% | 1021.7 hPa | 0 mm | - | 0 W/m² | - |
| 1788052518 | 16.67° C | 81% | 1021.6 hPa | 0 mm | - | 0 W/m² | - |
| 1788051919 | 17.22° C | 80% | 1021.4 hPa | 0 mm | - | 0 W/m² | - |
| 1788051319 | 17.22° C | 78% | 1021.4 hPa | 0 mm | - | 0 W/m² | - |
| 1788050719 | 17.22° C | 77% | 1021.4 hPa | 0 mm | - | 0 W/m² | - |
| 1788050120 | 17.78° C | 75% | 1021.3 hPa | 0 mm | - | 0 W/m² | - |
| 1788049517 | 17.78° C | 74% | 1021.5 hPa | 0 mm | - | 0 W/m² | - |
| 1788048916 | 18.33° C | 73% | 1021.5 hPa | 0 mm | - | 0 W/m² | - |
| 1788048320 | 18.33° C | 75% | 1021.5 hPa | 0 mm | - | 0 W/m² | - |
| 1788047720 | 18.33° C | 73% | 1021.4 hPa | 0 mm | - | 0 W/m² | - |
| 1788047117 | 18.33° C | 74% | 1021.4 hPa | 0 mm | - | 0 W/m² | - |
| 1788046517 | 18.33° C | 73% | 1021.2 hPa | 0 mm | - | 2 W/m² | - |
| 1788045917 | 18.89° C | 74% | 1021.2 hPa | 0 mm | - | 5 W/m² | - |
| 1788045318 | 19.44° C | 75% | 1021.3 hPa | 0 mm | - | 10 W/m² | - |
| 1788044718 | 19.44° C | 73% | 1021.3 hPa | 0 mm | - | 15 W/m² | - |
| 1788044118 | 20° C | 72% | 1021.1 hPa | 0 mm | - | 18 W/m² | - |
* Rain latest hour (hover to see other rain measurements)
** Current wind speed in m/s (hover to see current wind gust speed)